Date String (YYYY-MM-DD hh:mm:ss) UTC,Instrument flags,absolute air pressure of the measurement (hPa),sample flow rate (lpm),inlet stack bypass flow (lpm),air temperature of the measurement (°C),ambient temperature measured by the external sensor (°C),aerosol sample conditioner tube jacket temperature (°C),OPC LED temperature (°C),internal box temperature (°C),relative humidity of the measurement (%),span deviation,mass concentration of particles derived from Lorenz-Mie calculation of OPC scattering (μg/m³),mass concentration of particles derived from Lorenz-Mie calculation of OPC scattering (μg/m³),mass concentration of particles derived from Lorenz-Mie calculation of OPC scattering (μg/m³)
DateTimeUTC,F1_M11,P_M11,Q1_M11,Q2_M11,T1_M11,T2_M11,T3_M11,T4_M11,T5_M11,U1_M11,ZSPAN_M11,X0_M11,X2_M11,X1_M11
2024-01-08 22:00:00,SystemResetWarning,0822.4,4.99,000.00,020.3,019.3,000.0,028.6,021.3,8.4,0000.0,0002.21,0000.94,0000.55
2024-01-08 22:01:00,SystemResetWarning,0822.4,5.00,000.00,020.3,019.3,000.0,028.6,021.3,8.4,0000.0,0002.32,0000.95,0000.54
2024-01-08 22:02:00,SystemResetWarning,0822.4,5.01,000.00,020.2,019.3,000.0,028.6,021.3,8.4,0000.0,0002.30,0000.94,0000.54
2024-01-08 22:03:00,SystemResetWarning,0822.4,5.00,000.00,020.3,019.4,000.0,028.6,021.3,8.4,0000.0,0002.92,0000.96,0000.55
2024-01-08 22:04:00,SystemResetWarning,0822.4,5.00,000.00,020.3,019.4,000.0,028.6,021.3,8.4,0000.0,0003.09,0000.92,0000.55
2024-01-08 22:05:00,SystemResetWarning,0822.4,5.00,000.00,020.2,019.3,000.0,028.6,021.3,8.4,0000.0,0004.13,0000.93,0000.55
2024-01-08 22:06:00,SystemResetWarning,0822.4,5.00,000.00,020.2,019.3,000.0,028.6,021.2,8.5,0000.0,0004.09,0000.91,0000.55
2024-01-08 22:07:00,SystemResetWarning,0822.4,5.00,000.00,020.2,019.3,000.0,028.6,021.3,8.5,0000.0,0004.06,0000.88,0000.54
2024-01-08 22:08:00,SystemResetWarning,0822.4,4.99,000.00,020.2,019.3,000.0,028.6,021.3,8.5,0000.0,0004.16,0000.90,0000.55
2024-01-08 22:09:00,SystemResetWarning,0822.4,5.00,000.00,020.2,019.3,000.0,028.6,021.3,8.4,0000.0,0004.08,0000.90,0000.55
2024-01-08 22:10:00,SystemResetWarning,0822.4,5.00,000.00,020.2,019.3,000.0,028.6,021.3,8.4,0000.0,0004.09,0000.92,0000.55
2024-01-08 22:11:00,SystemResetWarning,0822.5,5.00,000.00,020.2,019.3,000.0,028.6,021.3,8.3,0000.0,0003.79,0000.89,0000.55
2024-01-08 22:12:00,SystemResetWarning,0822.4,5.00,000.00,020.2,019.3,000.0,028.5,021.3,8.3,0000.0,0003.67,0000.88,0000.55
2024-01-08 22:13:00,SystemResetWarning,0822.4,5.01,000.00,020.2,019.3,000.0,028.6,021.3,8.3,0000.0,0003.85,0000.92,0000.55
2024-01-08 22:14:00,SystemResetWarning,0822.4,5.01,000.00,020.2,019.3,000.0,028.6,021.3,8.3,0000.0,0003.41,0000.89,0000.55
2024-01-08 22:15:00,SystemResetWarning,0822.5,4.99,000.00,020.2,019.3,000.0,028.5,021.3,8.3,0000.0,0002.83,0000.88,0000.55
2024-01-08 22:16:00,SystemResetWarning,0822.4,4.99,000.00,020.2,019.3,000.0,028.5,021.3,8.3,0000.0,0002.01,0000.87,0000.55
2024-01-08 22:17:00,SystemResetWarning,0822.5,4.99,000.00,020.2,019.3,000.0,028.5,021.3,8.1,0000.0,0001.85,0000.86,0000.56
2024-01-08 22:18:00,SystemResetWarning,0822.7,5.00,000.00,020.2,019.3,000.0,028.5,021.4,7.7,0000.0,0001.95,0000.89,0000.56
2024-01-08 22:19:00,SystemResetWarning,0822.8,5.01,000.00,020.2,019.4,000.0,028.5,021.4,7.4,0000.0,0002.09,0000.91,0000.56
2024-01-08 22:20:00,SystemResetWarning,0822.5,5.01,000.00,020.2,019.4,000.0,028.5,021.4,7.3,0000.0,0002.10,0000.90,0000.56
2024-01-08 22:21:00,SystemResetWarning,0822.8,4.99,000.00,020.2,019.5,000.0,028.5,021.5,7.3,0000.0,0002.02,0000.88,0000.56
2024-01-08 22:22:00,SystemResetWarning,0822.6,4.99,000.00,020.3,019.5,000.0,028.5,021.5,7.2,0000.0,0002.04,0000.89,0000.56
2024-01-08 22:23:00,SystemResetWarning,0822.6,5.00,000.00,020.3,019.6,000.0,028.5,021.5,7.2,0000.0,0002.06,0000.90,0000.56
2024-01-08 22:24:00,SystemResetWarning,0822.7,5.00,000.00,020.3,019.6,000.0,028.5,021.5,7.2,0000.0,0001.98,0000.90,0000.57
2024-01-08 22:25:00,SystemResetWarning,0822.8,5.00,000.00,020.3,019.6,000.0,028.5,021.5,7.1,0000.0,0001.88,0000.91,0000.57
2024-01-08 22:26:00,SystemResetWarning,0822.7,5.00,000.00,020.3,019.6,000.0,028.6,021.5,7.2,0000.0,0001.92,0000.93,0000.57
2024-01-08 22:27:00,SystemResetWarning,0822.7,5.00,000.00,020.3,019.6,000.0,028.6,021.5,7.1,0000.0,0001.89,0000.93,0000.58
2024-01-08 22:28:00,SystemResetWarning,0822.7,5.00,000.00,020.3,019.6,000.0,028.6,021.6,7.0,0000.0,0001.84,0000.93,0000.58
2024-01-08 22:29:00,SystemResetWarning,0822.6,5.00,000.00,020.3,019.6,000.0,028.6,021.5,6.9,0000.0,0001.96,0000.92,0000.58
2024-01-08 22:30:00,SystemResetWarning,0822.6,5.00,000.00,020.3,019.6,000.0,028.6,021.5,6.9,0000.0,0001.81,0000.90,0000.57
2024-01-08 22:31:00,SystemResetWarning,0822.6,5.00,000.00,020.3,019.6,000.0,028.6,021.5,6.9,0000.0,0001.85,0000.90,0000.57
2024-01-08 22:32:00,SystemResetWarning,0822.6,5.00,000.00,020.4,019.6,000.0,028.6,021.5,6.9,0000.0,0002.11,0000.93,0000.56
2024-01-08 22:33:00,SystemResetWarning,0822.6,5.00,000.00,020.4,019.6,000.0,028.6,021.5,6.9,0000.0,0002.12,0000.93,0000.55
2024-01-08 22:34:00,SystemResetWarning,0822.6,5.00,000.00,020.4,019.7,000.0,028.6,021.6,6.9,0000.0,0002.12,0000.90,0000.55
2024-01-08 22:35:00,SystemResetWarning,0822.6,4.99,000.00,020.4,019.7,000.0,028.6,021.6,6.9,0000.0,0001.96,0000.83,0000.53
2024-01-08 22:36:00,SystemResetWarning,0822.8,4.99,000.00,020.4,019.7,000.0,028.6,021.6,6.7,0000.0,0002.04,0000.80,0000.52
2024-01-08 22:37:00,SystemResetWarning,0822.8,4.99,000.00,020.4,019.7,000.0,028.6,021.6,6.7,0000.0,0002.01,0000.78,0000.50
2024-01-08 22:38:00,SystemResetWarning,0822.8,5.00,000.00,020.4,019.7,000.0,028.6,021.6,6.6,0000.0,0001.95,0000.74,0000.48
2024-01-08 22:39:00,SystemResetWarning,0823.0,5.00,000.00,020.4,019.7,000.0,028.6,021.6,6.6,0000.0,0001.94,0000.73,0000.47
2024-01-08 22:40:00,SystemResetWarning,0823.2,5.00,000.00,020.4,019.7,000.0,028.6,021.6,6.6,0000.0,0001.75,0000.72,0000.47
2024-01-08 22:41:00,SystemResetWarning,0823.3,5.00,000.00,020.4,019.7,000.0,028.6,021.6,6.7,0000.0,0001.63,0000.69,0000.47
2024-01-08 22:42:00,SystemResetWarning,0823.0,5.00,000.00,020.4,019.7,000.0,028.6,021.6,6.8,0000.0,0001.52,0000.66,0000.46
2024-01-08 22:43:00,SystemResetWarning,0823.1,5.00,000.00,020.4,019.7,000.0,028.6,021.6,6.8,0000.0,0001.23,0000.61,0000.45
2024-01-08 22:44:00,SystemResetWarning,0822.8,5.00,000.00,020.4,019.7,000.0,028.6,021.6,6.8,0000.0,0001.21,0000.61,0000.47
2024-01-08 22:45:00,SystemResetWarning,0823.1,4.99,000.00,020.4,019.7,000.0,028.7,021.6,6.7,0000.0,0001.18,0000.63,0000.48
2024-01-08 22:46:00,SystemResetWarning,0823.1,5.00,000.00,020.4,019.7,000.0,028.7,021.7,6.5,0000.0,0001.34,0000.68,0000.48
2024-01-08 22:47:00,SystemResetWarning,0823.1,5.00,000.00,020.4,019.8,000.0,028.7,021.6,6.5,0000.0,0001.37,0000.70,0000.49
2024-01-08 22:48:00,SystemResetWarning,0823.0,5.00,000.00,020.4,019.8,000.0,028.7,021.7,6.6,0000.0,0001.33,0000.70,0000.50
2024-01-08 22:49:00,SystemResetWarning,0823.1,5.00,000.00,020.4,019.8,000.0,028.7,021.7,6.6,0000.0,0001.35,0000.71,0000.50
2024-01-08 22:50:00,SystemResetWarning,0823.0,5.00,000.00,020.5,019.8,000.0,028.7,021.7,6.5,0000.0,0001.41,0000.72,0000.49
2024-01-08 22:51:00,SystemResetWarning,0823.0,5.00,000.00,020.5,019.8,000.0,028.7,021.7,6.5,0000.0,0001.40,0000.70,0000.48
2024-01-08 22:52:00,SystemResetWarning,0823.0,5.00,000.00,020.5,019.8,000.0,028.7,021.7,6.4,0000.0,0001.39,0000.70,0000.48
2024-01-08 22:53:00,SystemResetWarning,0823.0,5.00,000.00,020.5,019.8,000.0,028.7,021.7,6.4,0000.0,0001.36,0000.70,0000.48
2024-01-08 22:54:00,SystemResetWarning,0823.1,5.00,000.00,020.5,019.8,000.0,028.7,021.7,6.4,0000.0,0001.39,0000.71,0000.48
2024-01-08 22:55:00,SystemResetWarning,0823.1,5.00,000.00,020.5,019.8,000.0,028.7,021.7,6.4,0000.0,0001.47,0000.71,0000.47
2024-01-08 22:56:00,SystemResetWarning,0823.1,5.01,000.00,020.5,019.9,000.0,028.7,021.8,6.4,0000.0,0001.79,0000.71,0000.46
2024-01-08 22:57:00,SystemResetWarning,0823.1,5.00,000.00,020.5,019.9,000.0,028.7,021.8,6.4,0000.0,0001.83,0000.70,0000.46
2024-01-08 22:58:00,SystemResetWarning,0823.1,5.00,000.00,020.5,019.9,000.0,028.7,021.8,6.5,0000.0,0001.91,0000.68,0000.44
2024-01-08 22:59:00,SystemResetWarning,0823.1,4.99,000.00,020.5,019.9,000.0,028.7,021.8,6.5,0000.0,0001.94,0000.69,0000.44
